Flag for United Kingdom Weather past 2 weeks in Whitstable, England, United Kingdom

Now
52 °F

Smoke.


Feels Like: 49 °F
Forecast: 44 / 51 °F
Wind: 10 mph from Southwest

Location: Manston

Current Time: Apr 25, 2015 at 11:53:16 PM

Latest Report: Apr 25, 2015 at 11:00 PM


Visibility: 6 mi

Pressure: 29.72 "Hg

Humidity: 91%

Dew point: 50 °F

Location of WhitstableLocation

Historic Weather in Whitstable — Graph

°F

Whitstable temperature yesterday

Maximum temperature yesterday: 64 °F (at 1:00 PM)
Minimum temperature yesterday: 39 °F (at 6:00 AM)
Average temperature yesterday: 52 °F

Past Weeks' High & Low Weather Summary

 TemperatureHumidityPressure
High73 °F (Apr 15, 2:00 PM)97% (Apr 14, 12:00 AM)30.54 "Hg (Apr 14, 12:00 AM)
Low38 °F (Apr 12, 6:00 AM)41% (Apr 15, 12:00 PM)29.69 "Hg (Apr 25, 4:00 PM)
Average50 °F76%30.19 "Hg
* Reported Apr 10 10:00 PM — Apr 25 10:00 PM, Whitstable, Weather by CustomWeather, © 2015

Note: Actual official high and low records may vary slightly from our data, if they occured in-between our weather recording intervals... More about our weather records

Advertising

Whitstable weather history for previous 24 hours

 ConditionsComfort  
Time TempWeatherWind HumidityBarometerVisibility
10:00 PM
Sat, Apr 25
52 °FCool.9 mph90%29.72 "Hg8 mi
9:00 PM52 °FLight rain. Overcast.10 mph90%29.72 "Hg7 mi
8:00 PM54 °FRain showers. Cloudy.13 mph79%29.71 "Hg9 mi
7:00 PM56 °FCool.13 mph72%29.70 "Hg16 mi
6:00 PM61 °FCool.17 mph62%29.69 "Hg19 mi
5:00 PM63 °FMild.18 mph51%29.69 "Hg17 mi
4:00 PM64 °FMild.18 mph51%29.69 "Hg14 mi
3:00 PM63 °FMild.18 mph59%29.70 "Hg17 mi
2:00 PM61 °FCool.15 mph62%29.71 "Hg28 mi
1:00 PM59 °FCool.14 mph73%29.71 "Hg22 mi
12:00 PM58 °FCool.15 mph77%29.72 "Hg25 mi
11:00 AM54 °FCool.15 mph84%29.72 "Hg14 mi
10:00 AM54 °FCool.15 mph84%29.72 "Hg10 mi
9:00 AM53 °FLight freezing rain. Cloudy.12 mph88%29.72 "Hg7 mi
8:00 AM52 °FCool.9 mph90%29.72 "Hg5 mi
7:00 AM51 °FDrizzle. Cloudy.10 mph91%29.73 "Hg4 mi
6:00 AM50 °FDrizzle. Cloudy.8 mph92%29.73 "Hg2 mi
5:00 AM50 °FCool.9 mph91%29.73 "Hg3 mi
4:00 AM51 °FCool.9 mph89%29.74 "Hg6 mi
3:00 AM51 °FSmoke.8 mph90%29.75 "Hg5 mi
2:00 AM51 °FCool.10 mph88%29.77 "Hg7 mi
12:00 AM51 °FCool.10 mph83%29.80 "Hg10 mi
11:00 PM
Fri, Apr 24
52 °FCool.16 mph77%29.80 "Hg16 mi
Weather by CustomWeather, © 2015

See weather overviewHow to use our weather pages